FW1704 Weather Reports


time (UTC)temp
C
wind
direction
speed
KPH
gust
KPH
rain 1hr
cm
rain 24hr
cm
rain mn
cm
humidity
%
barometer
mb
20260504151053 23 257 4.8 9.7 0.00 0.00 0.00 55 1018.7
20260504150554 23 246 1.6 11.3 0.00 0.00 0.00 55 1018.7
20260504141053 18 167 1.6 4.8 0.00 0.00 0.00 82 1018.8
20260504140550 18 344 0.0 3.2 0.00 0.00 0.00 86 1018.7
20260504130551 13 0 0.0 0.0 0.00 0.00 0.00 93 1018.6
20260504110548 11 0 0.0 0.0 0.00 0.00 0.00 92 1018.1
20260504100549 11 0 0.0 0.0 0.00 0.00 0.00 92 1018.1
20260504081553 12 0 0.0 0.0 0.00 0.00 0.00 91 1018.2
20260504081051 12 0 0.0 0.0 0.00 0.00 0.00 91 1018.3
20260504080549 12 0 0.0 0.0 0.00 0.00 0.00 91 1018.4
20260504050550 13 0 0.0 0.0 0.00 0.00 0.00 89 1019.5
20260504045550 13 0 0.0 0.0 0.00 0.00 0.00 89 1019.5
20260504045048 13 0 0.0 0.0 0.00 0.00 0.00 89 1019.5
20260504044551 13 0 0.0 0.0 0.00 0.00 0.00 89 1019.5
20260504044049 13 0 0.0 0.0 0.00 0.00 0.00 88 1019.6
20260504043549 13 0 0.0 0.0 0.00 0.00 0.00 88 1019.6
20260504043057 13 0 0.0 0.0 0.00 0.00 0.00 88 1019.6
20260504042548 13 0 0.0 0.0 0.00 0.00 0.00 88 1019.6
20260504042050 14 0 0.0 0.0 0.00 0.00 0.00 88 1019.6
20260504041553 14 0 0.0 0.0 0.00 0.00 0.00 88 1019.6
20260504041053 14 0 0.0 0.0 0.00 0.00 0.00 88 1019.6
20260504040548 14 0 0.0 0.0 0.00 0.00 0.00 87 1019.7
20260504040051 14 0 0.0 0.0 0.00 0.00 0.00 87 1019.7
20260504035548 14 0 0.0 0.0 0.00 0.00 0.00 87 1019.7
20260504035048 14 0 0.0 0.0 0.00 0.00 0.00 86 1019.7
20260504034552 14 0 0.0 0.0 0.00 0.00 0.00 86 1019.6
20260504034049 15 0 0.0 0.0 0.00 0.00 0.00 86 1019.6
20260504033551 15 0 0.0 1.6 0.00 0.00 0.00 86 1019.5
20260504033049 15 0 0.0 1.6 0.00 0.00 0.00 85 1019.5
20260504032552 15 188 0.0 1.6 0.00 0.00 0.00 85 1019.6
20260504032054 15 0 0.0 1.6 0.00 0.00 0.00 85 1019.6
20260504031553 15 0 0.0 1.6 0.00 0.00 0.00 84 1019.7
20260504031051 15 0 0.0 1.6 0.00 0.00 0.00 84 1019.6
20260504030551 15 188 0.0 1.6 0.00 0.00 0.00 84 1019.5
20260504030053 15 0 0.0 0.0 0.00 0.00 0.00 83 1019.5
20260504025551 15 0 0.0 0.0 0.00 0.00 0.00 83 1019.5
20260504025053 15 0 0.0 0.0 0.00 0.00 0.00 83 1019.5
20260504024553 15 0 0.0 0.0 0.00 0.00 0.00 82 1019.4
20260504024055 16 0 0.0 0.0 0.00 0.00 0.00 82 1019.4
20260504023553 16 0 0.0 0.0 0.00 0.00 0.00 82 1019.3
20260504023053 16 0 0.0 0.0 0.00 0.00 0.00 81 1019.3
20260504022553 16 0 0.0 0.0 0.00 0.00 0.00 80 1019.2
20260504022052 16 0 0.0 0.0 0.00 0.00 0.00 79 1019.3
20260504021557 16 0 0.0 0.0 0.00 0.00 0.00 78 1019.2
20260504021049 16 0 0.0 0.0 0.00 0.00 0.00 77 1019.2
20260504020552 17 0 0.0 0.0 0.00 0.00 0.00 77 1019.1
20260504020131 17 0 0.0 0.0 0.00 0.00 0.00 76 1018.9
20260504015552 17 0 0.0 0.0 0.00 0.00 0.00 75 1018.9
20260504015054 17 0 0.0 0.0 0.00 0.00 0.00 75 1018.8
20260504014603 17 0 0.0 0.0 0.00 0.00 0.00 74 1018.8
20260504014051 18 0 0.0 0.0 0.00 0.00 0.00 72 1018.8
20260504013553 18 0 0.0 0.0 0.00 0.00 0.00 71 1018.7
20260504013116 18 0 0.0 0.0 0.00 0.00 0.00 71 1018.7
20260504012552 19 0 0.0 0.0 0.00 0.00 0.00 69 1018.7
20260504012055 20 0 0.0 0.0 0.00 0.00 0.00 68 1018.6
20260504011558 20 0 0.0 0.0 0.00 0.00 0.00 66 1018.6
20260504011052 20 0 0.0 0.0 0.00 0.00 0.00 65 1018.5
20260504010553 20 0 0.0 0.0 0.00 0.00 0.00 64 1018.4
20260504010057 21 0 0.0 1.6 0.00 0.00 0.00 63 1018.3
20260504005552 21 0 0.0 1.6 0.00 0.00 0.00 63 1018.5
20260504005053 21 0 0.0 0.0 0.00 0.00 0.00 62 1018.4
20260504004630 21 0 0.0 0.0 0.00 0.00 0.00 61 1018.4
20260504004053 22 0 0.0 0.0 0.00 0.00 0.00 60 1018.3
20260504003552 22 0 0.0 1.6 0.00 0.00 0.00 58 1018.3
20260504003101 22 0 0.0 1.6 0.00 0.00 0.00 57 1018.3
20260504002551 22 0 0.0 1.6 0.00 0.00 0.00 57 1018.2
20260504002053 23 0 0.0 3.2 0.00 0.00 0.00 56 1018.2
20260504001621 23 0 0.0 3.2 0.00 0.00 0.00 54 1018.2
20260504001053 23 0 0.0 3.2 0.00 0.00 0.00 51 1018.2
20260504000552 23 0 1.6 4.8 0.00 0.00 0.00 50 1018.2
20260504000105 23 0 0.0 6.4 0.00 0.00 0.00 50 1018.2
20260503235550 23 221 1.6 12.9 0.00 0.00 0.00 48 1018.3
20260503235054 23 200 1.6 12.9 0.00 0.00 0.00 47 1018.3
20260503234606 23 236 4.8 12.9 0.00 0.00 0.00 46 1018.5
20260503234054 23 228 3.2 9.7 0.00 0.00 0.00 48 1018.5
20260503233553 23 185 1.6 12.9 0.00 0.00 0.00 47 1018.4
20260503233100 24 219 4.8 12.9 0.00 0.00 0.00 45 1018.5
20260503232552 24 232 3.2 12.9 0.00 0.00 0.00 45 1018.5
20260503232051 25 255 3.2 12.9 0.00 0.00 0.00 45 1018.5
20260503231553 25 234 3.2 12.9 0.00 0.00 0.00 43 1018.6
20260503231053 25 193 1.6 12.9 0.00 0.00 0.00 44 1018.5
20260503230555 25 219 3.2 12.9 0.00 0.00 0.00 44 1018.5
20260503230110 25 242 3.2 11.3 0.00 0.00 0.00 43 1018.5
20260503225553 25 207 3.2 6.4 0.00 0.00 0.00 44 1018.6
20260503225053 25 206 1.6 12.9 0.00 0.00 0.00 45 1018.6
20260503224559 25 227 3.2 12.9 0.00 0.00 0.00 45 1018.6
20260503224052 25 213 4.8 12.9 0.00 0.00 0.00 42 1018.6
20260503223553 25 240 3.2 9.7 0.00 0.00 0.00 43 1018.6
20260503223053 25 245 1.6 12.9 0.00 0.00 0.00 41 1018.6
20260503222554 25 196 4.8 12.9 0.00 0.00 0.00 41 1018.6
20260503222051 25 234 4.8 12.9 0.00 0.00 0.00 41 1018.8
20260503221602 25 228 4.8 17.7 0.00 0.00 0.00 43 1018.7
20260503221052 25 327 3.2 17.7 0.00 0.00 0.00 42 1018.6
20260503220554 25 209 4.8 14.5 0.00 0.00 0.00 42 1018.7
20260503220058 25 240 6.4 14.5 0.00 0.00 0.00 44 1018.8
20260503215552 25 245 6.4 14.5 0.00 0.00 0.00 42 1018.9
20260503215051 25 211 8.0 14.5 0.00 0.00 0.00 44 1019.0
20260503214600 25 243 6.4 14.5 0.00 0.00 0.00 42 1019.1
20260503214051 25 182 4.8 17.7 0.00 0.00 0.00 42 1019.1
20260503213553 24 209 4.8 17.7 0.00 0.00 0.00 43 1019.2
20260503213059 24 232 6.4 17.7 0.00 0.00 0.00 43 1019.3
20260503212553 24 190 6.4 16.1 0.00 0.00 0.00 43 1019.4
20260503212050 24 157 6.4 16.1 0.00 0.00 0.00 43 1019.6
20260503211557 24 237 6.4 16.1 0.00 0.00 0.00 42 1019.5
20260503211056 24 192 6.4 16.1 0.00 0.00 0.00 41 1019.6
20260503210552 25 290 6.4 16.1 0.00 0.00 0.00 41 1019.6
20260503210052 25 252 4.8 16.1 0.00 0.00 0.00 41 1019.7
20260503205552 25 268 8.0 16.1 0.00 0.00 0.00 41 1019.7
20260503205052 25 257 6.4 17.7 0.00 0.00 0.00 41 1019.7
20260503204556 25 288 4.8 20.9 0.00 0.00 0.00 42 1019.7
20260503204053 25 217 4.8 20.9 0.00 0.00 0.00 40 1019.8
20260503203551 26 246 8.0 20.9 0.00 0.00 0.00 40 1019.9
20260503203108 26 192 6.4 17.7 0.00 0.00 0.00 38 1019.9
20260503202551 26 249 6.4 12.9 0.00 0.00 0.00 38 1020.0
20260503202053 26 220 4.8 12.9 0.00 0.00 0.00 38 1020.1
20260503201556 26 209 1.6 14.5 0.00 0.00 0.00 36 1020.1
20260503201051 26 217 6.4 14.5 0.00 0.00 0.00 34 1020.2
20260503200554 26 175 3.2 16.1 0.00 0.00 0.00 37 1020.2
20260503200054 26 321 4.8 16.1 0.00 0.00 0.00 36 1020.4
20260503195551 26 44 3.2 9.7 0.00 0.00 0.00 34 1020.4
20260503195053 26 323 4.8 9.7 0.00 0.00 0.00 36 1020.5
20260503194557 26 336 3.2 6.4 0.00 0.00 0.00 33 1020.6
20260503194052 27 337 3.2 8.0 0.00 0.00 0.00 34 1020.7
20260503193552 27 42 3.2 8.0 0.00 0.00 0.00 32 1020.8
20260503193059 26 185 1.6 12.9 0.00 0.00 0.00 35 1020.9
20260503192551 25 317 4.8 12.9 0.00 0.00 0.00 35 1021.0
20260503192051 25 290 4.8 12.9 0.00 0.00 0.00 35 1021.0
20260503191556 26 44 4.8 12.9 0.00 0.00 0.00 33 1021.2
20260503191052 26 214 3.2 12.9 0.00 0.00 0.00 32 1021.2
20260503190553 25 0 1.6 12.9 0.00 0.00 0.00 33 1021.1
20260503190106 25 294 6.4 12.9 0.00 0.00 0.00 33 1021.2
20260503185553 25 274 3.2 12.9 0.00 0.00 0.00 35 1021.3
20260503185053 25 38 3.2 12.9 0.00 0.00 0.00 35 1021.4
20260503184554 25 51 4.8 12.9 0.00 0.00 0.00 36 1021.5
20260503184050 25 225 3.2 12.9 0.00 0.00 0.00 36 1021.6
20260503183551 25 58 4.8 12.9 0.00 0.00 0.00 37 1021.6
20260503183055 26 109 3.2 12.9 0.00 0.00 0.00 34 1021.7
20260503182553 26 262 4.8 12.9 0.00 0.00 0.00 34 1021.7
20260503182051 25 271 3.2 12.9 0.00 0.00 0.00 34 1021.8
20260503181600 26 88 3.2 9.7 0.00 0.00 0.00 32 1021.8
20260503181052 26 261 3.2 9.7 0.00 0.00 0.00 34 1021.9
20260503180552 25 281 1.6 9.7 0.00 0.00 0.00 34 1022.1
20260503180055 25 23 3.2 9.7 0.00 0.00 0.00 34 1022.1
20260503175552 25 111 4.8 9.7 0.00 0.00 0.00 38 1022.0
20260503175053 26 360 1.6 8.0 0.00 0.00 0.00 34 1022.1
20260503174555 25 0 1.6 12.9 0.00 0.00 0.00 35 1022.1
20260503174055 25 234 3.2 12.9 0.00 0.00 0.00 34 1022.3
20260503173553 25 311 1.6 8.0 0.00 0.00 0.00 35 1022.4
20260503173053 25 36 1.6 11.3 0.00 0.00 0.00 35 1022.4
20260503172553 24 14 3.2 11.3 0.00 0.00 0.00 35 1022.5
20260503172051 24 112 3.2 8.0 0.00 0.00 0.00 38 1022.6
20260503171553 24 17 1.6 12.9 0.00 0.00 0.00 37 1022.7
20260503171052 23 99 1.6 12.9 0.00 0.00 0.00 39 1022.8
20260503170552 24 5 3.2 14.5 0.00 0.00 0.00 38 1022.9